Volver al catálogo

STARLINK-38023

ActivoComunicacionesVLEO
NORAD 100043·PAYLOAD·🇺🇸 United States

Lanzado Jul 14, 2026 desde Cape Canaveral Space Force Station

Loading…

Próximos Pases (próximas 24 horas)

TLE

ActualizadoSource: Space-Track

Época: Sep 13, 2026, 16:38 UTC

1 A0043U 26161R   26256.69366336  .00014924  00000-0  45182-3 0  9999
2 A0043  53.1615  29.6652 0001209  91.8625 268.2516 15.34409879  9563

Sigue STARLINK-38023 en tiempo real con AllMySat

Download on the App Store